Weather History for Quillayute, WA

Change the Weather History Date:

Friday, December 9, 2011

  Actual Average Record
Temperature  
Mean Temperature 36 °F 40 °F  
Max Temperature 47 °F 46 °F 57 °F (2014)
Min Temperature 24 °F 35 °F 17 °F (2009)
Degree Days  
Heating Degree Days 29 25  
Month to date heating degree days 217  
Since 1 July heating degree days 1931  
Cooling Degree Days 0 0  
Month to date cooling degree days 0  
Year to date cooling degree days 19  
Moisture  
Dew Point 29 °F    
Average Humidity 95    
Maximum Humidity 100    
Minimum Humidity 71    
Precipitation  
Precipitation 0.00 in 0.41 in 2.54 in (1995)
Month to date precipitation 4.07  
Year to date precipitation 90.62  
Sea Level Pressure  
Sea Level Pressure 30.21 in    
Wind  
Wind Speed 1 mph (East)    
Max Wind Speed 7 mph    
Max Gust Speed 9 mph    
Visibility 4 miles    
Events Fog    
T = Trace of Precipitation, MM = Missing Value Source: NWS Daily Summary

Daily Weather History Graph

Daily Weather History Graph

Search for Another Location

Airport:

Trip Planner

Search our weather history database for the weather conditions in past years. The results will help you decide how hot, cold, wet, or windy it might be!

Date:

Astronomy

Dec. 09, 2011 Rise Set
Actual Time 7:55 AM PST 4:25 PM PST
Civil Twilight 7:19 AM PST 5:01 PM PST
Nautical Twilight 6:40 AM PST 5:40 PM PST
Astronomical Twilight 6:02 AM PST 6:18 PM PST
Moon 3:52 PM PST (12/9) 7:09 AM PST (12/9)
Length of Visible Light 9h 41m
Length of Day
8h 29m
Waxing Gibbous, 99% of the Moon is Illuminated
Dec 9
Waxing Gibbous
Dec 10
Full
Dec 17
Last Quarter
Dec 24
New
Dec 31
First Quarter

Hourly Weather History & Observations

Time (PST) Temp. Windchill Dew Point Humidity Pressure Visibility Wind Dir Wind Speed Gust Speed Precip Events Conditions
12:53 AM 27.0 °F - 26.1 °F 96% 30.33 in 4.0 mi Calm Calm - N/A   Clear
1:53 AM 30.0 °F 26.5 °F 28.9 °F 96% 30.33 in 10.0 mi ESE 3.5 mph - N/A   Clear
2:00 AM - - - N/A% - - North - - N/A   Unknown
2:53 AM 30.0 °F 26.5 °F 28.0 °F 92% 30.32 in 10.0 mi East 3.5 mph - N/A   Clear
3:53 AM 28.9 °F 25.2 °F 27.0 °F 92% 30.30 in 10.0 mi East 3.5 mph - N/A   Clear
4:53 AM 28.0 °F - 27.0 °F 96% 30.29 in 10.0 mi Calm Calm - N/A   Clear
5:53 AM 28.9 °F 25.2 °F 27.0 °F 92% 30.27 in 10.0 mi ENE 3.5 mph - N/A   Clear
6:51 AM 24.8 °F - 24.8 °F 100% 30.28 in 1.8 mi Calm Calm - N/A   Clear
6:53 AM 25.0 °F - 23.0 °F 92% 30.29 in 1.2 mi Calm Calm - N/A   Clear
7:05 AM 26.6 °F - 24.8 °F 93% 30.28 in 0.5 mi Calm Calm - N/A Fog Light Freezing Fog
7:14 AM 26.6 °F - 26.6 °F 100% 30.28 in 2.0 mi Calm Calm - N/A   Clear
7:18 AM 24.8 °F - 24.8 °F 100% 30.27 in 1.2 mi Calm Calm - N/A   Clear
7:30 AM 24.8 °F - 24.8 °F 100% 30.28 in 2.0 mi Calm Calm - N/A   Clear
7:37 AM 26.6 °F - 26.6 °F 100% 30.28 in 8.0 mi Calm Calm - N/A   Clear
7:49 AM 24.8 °F - 23.0 °F 93% 30.28 in 1.2 mi Calm Calm - N/A   Clear
7:53 AM 25.0 °F - 24.1 °F 96% 30.29 in 0.5 mi Calm Calm - N/A Fog Light Freezing Fog
8:02 AM 24.8 °F - 23.0 °F 93% 30.28 in 1.8 mi Calm Calm - N/A   Clear
8:17 AM 26.6 °F - 24.8 °F 93% 30.28 in 4.0 mi Calm Calm - N/A   Clear
8:53 AM 28.9 °F 25.2 °F 27.0 °F 92% 30.29 in 10.0 mi ENE 3.5 mph - N/A   Clear
9:30 AM 30.2 °F 26.7 °F 30.2 °F 100% 30.28 in 7.0 mi ENE 3.5 mph - N/A   Scattered Clouds
9:37 AM 30.2 °F - 30.2 °F 100% 30.28 in 2.5 mi Calm Calm - N/A   Mostly Cloudy
9:39 AM 30.2 °F - 30.2 °F 100% 30.28 in 1.0 mi Calm Calm - N/A   Mostly Cloudy
9:42 AM 30.2 °F - 30.2 °F 100% 30.28 in 0.2 mi Calm Calm - N/A Fog Light Freezing Fog
9:53 AM 30.9 °F 26.2 °F 30.9 °F 100% 30.28 in 0.2 mi East 4.6 mph - N/A Fog Light Freezing Fog
10:00 AM 32.0 °F - 32.0 °F 100% - - North - - N/A   Unknown
10:26 AM 32.0 °F - 32.0 °F 100% 30.28 in 0.8 mi Calm Calm - N/A   Mist
10:31 AM 33.8 °F - 33.8 °F 100% 30.27 in 1.5 mi Calm Calm - N/A   Mostly Cloudy
10:34 AM 33.8 °F - 33.8 °F 100% 30.27 in 2.5 mi Calm Calm - N/A   Scattered Clouds
10:41 AM 33.8 °F - 33.8 °F 100% 30.27 in 8.0 mi Calm Calm - N/A   Partly Cloudy
10:53 AM 36.0 °F - 34.0 °F 93% 30.27 in 10.0 mi Calm Calm - N/A   Clear
11:53 AM 39.9 °F - 37.0 °F 89% 30.25 in 10.0 mi Calm Calm - N/A   Clear
12:53 PM 42.1 °F - 37.0 °F 82% 30.22 in 10.0 mi Calm Calm - N/A   Clear
1:53 PM 46.0 °F - 37.9 °F 73% 30.19 in 10.0 mi Calm Calm - N/A   Clear
2:53 PM 46.9 °F - 37.9 °F 71% 30.16 in 10.0 mi Calm Calm - N/A   Clear
3:53 PM 43.0 °F - 37.0 °F 80% 30.17 in 10.0 mi Calm Calm - N/A   Clear
4:53 PM 35.1 °F - 35.1 °F 100% 30.16 in 10.0 mi Calm Calm - N/A   Clear
5:10 PM - - - N/A% - - North - - N/A   Unknown
5:53 PM 32.0 °F - 30.9 °F 96% 30.17 in 2.5 mi Calm Calm - N/A   Clear
6:05 PM 30.2 °F - 30.2 °F 100% 30.16 in 4.0 mi Calm Calm - N/A   Clear
6:36 PM 33.8 °F 30.8 °F 32.0 °F 93% 30.16 in 2.0 mi East 3.5 mph - N/A   Scattered Clouds
6:38 PM 33.8 °F 30.8 °F 32.0 °F 93% 30.15 in 1.2 mi East 3.5 mph - N/A   Mostly Cloudy
6:46 PM 30.2 °F - 30.2 °F 100% 30.16 in 0.5 mi Calm Calm - N/A Fog Light Freezing Fog
6:53 PM 30.9 °F - 30.9 °F 100% 30.16 in 0.5 mi Calm Calm - N/A Fog Light Freezing Fog
7:01 PM 30.2 °F - 30.2 °F 100% 30.15 in 0.2 mi Calm Calm - N/A Fog Light Freezing Fog
7:08 PM 30.2 °F - 30.2 °F 100% 30.15 in 0.5 mi Calm Calm - N/A Fog Light Freezing Fog
7:21 PM 32.0 °F - 30.2 °F 93% 30.15 in 1.2 mi Calm Calm - N/A   Scattered Clouds
7:23 PM 32.0 °F - 30.2 °F 93% 30.15 in 2.0 mi Calm Calm - N/A   Scattered Clouds
7:31 PM 32.0 °F 26.4 °F 30.2 °F 93% 30.14 in 5.0 mi East 5.8 mph - N/A   Partly Cloudy
7:53 PM 33.1 °F 27.7 °F 32.0 °F 96% 30.14 in 7.0 mi East 5.8 mph - N/A   Clear
8:40 PM 30.2 °F - 28.4 °F 93% 30.14 in 2.5 mi Calm Calm - N/A   Clear
8:47 PM 30.2 °F - 28.4 °F 93% 30.14 in 1.2 mi Calm Calm - N/A   Clear
8:53 PM 30.0 °F - 28.9 °F 96% 30.15 in 0.8 mi Calm Calm - N/A   Clear
8:58 PM 30.2 °F - 28.4 °F 93% 30.14 in 1.5 mi Calm Calm - N/A   Clear
9:00 PM 28.4 °F - 28.4 °F 100% 30.14 in 3.0 mi Calm Calm - N/A   Clear
9:18 PM 30.2 °F - 28.4 °F 93% 30.14 in 2.5 mi Calm Calm - N/A   Partly Cloudy
9:20 PM 30.2 °F - 28.4 °F 93% 30.14 in 1.2 mi Calm Calm - N/A   Scattered Clouds
9:22 PM 30.2 °F - 28.4 °F 93% 30.15 in 0.8 mi Calm Calm - N/A   Mist
9:33 PM 28.4 °F - 28.4 °F 100% 30.15 in 0.2 mi Calm Calm - N/A Fog Light Freezing Fog
9:53 PM 28.9 °F - 27.0 °F 92% 30.15 in 0.5 mi Calm Calm - N/A Fog Light Freezing Fog
10:02 PM 28.4 °F - 28.4 °F 100% 30.15 in 0.2 mi Calm Calm - N/A Fog Light Freezing Fog
10:32 PM 28.4 °F - 26.6 °F 93% 30.15 in 0.5 mi Calm Calm - N/A Fog Light Freezing Fog
10:53 PM 27.0 °F - 26.1 °F 96% 30.17 in 0.5 mi Calm Calm - N/A Fog Light Freezing Fog
11:04 PM 28.4 °F - 26.6 °F 93% 30.16 in 1.5 mi Calm Calm - N/A   Overcast
11:08 PM 28.4 °F - 26.6 °F 93% 30.16 in 3.0 mi Calm Calm - N/A   Overcast
11:16 PM 28.4 °F - 26.6 °F 93% 30.16 in 2.5 mi Calm Calm - N/A   Mostly Cloudy
11:23 PM 28.4 °F - 26.6 °F 93% 30.16 in 9.0 mi Calm Calm - N/A   Mostly Cloudy
11:53 PM 28.9 °F - 28.0 °F 96% 30.17 in 10.0 mi Calm Calm - N/A   Overcast